Powrót do katalogu

ONEWEB-0145

AktywnyŁącznośćPO
NORAD 47291·PAYLOAD·🇬🇧 United Kingdom

Wystrzelony Dec 18, 2020 z Vostochny Cosmodrome

Loading…

Następne Przeloty (najbliższe 24 godziny)

TLE

ŚwieżeSource: CelesTrak SupGP

Epoka: Sep 14, 2026, 16:59 UTC

1 47291C 20100AK  26257.70817546  .00000796  00000+0  22163-2 0  2570
2 47291  87.8973 332.8944 0001717  99.2126 359.9042 13.12438080    18

Śledź ONEWEB-0145 w czasie rzeczywistym z AllMySat

Download on the App Store